Location: Sortland
(68.7020°N, 15.4240°E)
Time: 03:10:31
(UTC+01:00)

Envisat - Pass Details

Date: 24 October 2019
Orbit: 764 x 766 km, 98.1° (Epoch: 13 November)

Event Time Altitude Azimuth Distance (km) Brightness Sun altitude
Rises 05:38:05 0° 15° (NNE) 3,250 6.6 -16.7°
Reaches altitude 10° 05:42:11 10° 47° (NE) 2,318 6.4 -16.3°
Maximum altitude 05:43:58 12° 68° (ENE) 2,197 6.6 -16.1°
Drops below altitude 10° 05:45:45 10° 89° (E) 2,314 6.8 -16.0°
Sets 05:49:49 0° 121° (ESE) 3,234 7.1 -15.6°
